FENGYUN 1C DEB, 41823

Orbit data source: Space-Track

FENGYUN 1C DEB, 41823 is space debris in SSO originally from a launch on Mon, 10 May 1999 UTC launched from the Taiyaun Space Center, China (TSC). Fengyun 1C debris stems from the Chinese weather satellite Fengyun-1C, which was intentionally destroyed by a Chinese anti-satellite missile in 2007. This event dramatically increased the amount of space debris, with thousands of trackable fragments posing hazards to satellites and human spaceflight. The Fengyun 1C debris cloud has become a focal point in discussions about space sustainability and the need for international regulations to prevent the creation of new debris.

Loading next visibility...
Identifier
41823, 1999-025EYA
Orbit
SSO
Country
Flag of CNCN / PRC
Related business
Manufacturer
Unknown
Mission
Spacecraft
Bus & Motor
Unknown
Mass
Unknown
Launch date (UTC)
Icon of a cake. It is the launch day of the satellite!1999-05-10 (27 years ago)
Launch vehicle
Unknown
Launch site
Taiyaun Space Center, China (TSC)
Object type
Payload
Rocket body
Debris
Shape & HBR
Unknown shape, 0.1 m
Radar Cross Section
Small (<0.1 m²)

Expand to show TLE details & history
Last TLE update: 17 hours ago

TLE from 17 hours ago
0 FENGYUN 1C DEB
1 41823U 99025EYA 26129.64884550  .00002063  00000-0  89488-3 0  9994
2 41823  98.7038 196.6673 0055680 159.1709 201.1757 14.24465457494630
Epoch: 2026-05-09T15:34Z
TLE epoch observation values (Epoch: 2026-05-09T15:34:20.251Z)
Latitude
0.00006°
Longitude
95.61966°
Altitude
850.57 km
Speed
7.408 km/s
True Right ascension
13h 06m 40s
True Declination
0° 00' 00"
Sunlit
Object was in full shadow at epoch
Visualization orbit readout
Latitude
Unknown
Longitude
Unknown
Altitude
Unknown
Speed
Unknown
Apparent Right ascension
Unknown
Apparent Declination
Unknown
Sunlit
N/A
Visualization observer readout
Local Sidereal Time
16:19:55
Azimuth
Unknown
Elevation
Unknown
Doppler factor
Unknown
Orbital elements
Apogee altitude
847.452 km
Perigee altitude
767.433 km
Semi-major axis
7,185.58 km
Eccentricity
0.00557
Inclination
98.7038°
RAAN
196.6673°
Arg. of periapsis
159.1709°
True anomaly
200.94671°
Mean anomaly
201.1757°
Eccentric anomaly
201.06106°
Mean motion
3.56328 °/min
Orbital period
101.03 mins
BSTAR
0.00089488
Loading maneuver chart data...
Computing Atmospheric mass density...

Documentation

Showing up to 5 results
|